Location: Newark
(48.1500°N, 2.9667°W)
Time: 23:43:14
(UTC+00:00)

A-11 Canister half - Pass Details

Date: 27 January 2020
Orbit: 1524 x 1684 km, 47.3° (Epoch: 19 February)

Event Time Altitude Azimuth Distance (km) Brightness Sun altitude
Rises 19:36:27 0° 263° (W) 4,685 12.9 -25.5°
Reaches altitude 10° 19:39:27 10° 263° (W) 3,714 12.0 -26.0°
Maximum altitude 19:48:53 86° 177° (S) 1,578 8.9 -27.6°
Enters shadow 19:51:49 52° 92° (E) 1,911 9.0 -28.1°
Drops below altitude 10° 19:58:38 10° 90° (E) 3,830 - -29.2°
Sets 20:01:47 0° 90° (E) 4,838 - -29.7°
